Total_Precipitation_Accumulation
0.27 0.25 0.15 0.13 0.14 0.31 0.39 0.33 0.26 0.24 0.24 0.23 0.16 0.11 0.11 0.11 0.10 0.11 0.08 0.07 0.10 0.09 0.10 0.13 0.13 0.13 0.14 0.13 0.13 0.16 0.14 0.13 0.10 0.09 0.11 0.12 0.09 0.04 0.04 0.07 0.10 0.13 0.11
0.37 0.37 0.33 0.32 0.25 0.35 0.48 0.54 0.49 0.51 0.38 0.36 0.23 0.16 0.14 0.12 0.11 0.13 0.10 0.08 0.08 0.08 0.07 0.12 0.17 0.16 0.15 0.15 0.15 0.13 0.11 0.10 0.10 0.10 0.10 0.11 0.11 0.07 0.06 0.07 0.11 0.14 0.14
0.71 0.83 0.75 0.49 0.34 0.45 0.54 0.51 0.46 0.62 0.49 0.42 0.32 0.31 0.28 0.20 0.16 0.14 0.13 0.08 0.05 0.07 0.06 0.11 0.16 0.17 0.19 0.19 0.22 0.21 0.17 0.11 0.08 0.07 0.07 0.09 0.09 0.07 0.07 0.07 0.09 0.15 0.16
0.80 0.89 0.66 0.35 0.38 0.60 0.67 0.60 0.54 0.68 0.60 0.49 0.39 0.41 0.39 0.28 0.20 0.17 0.13 0.10 0.07 0.02 0.03 0.07 0.14 0.19 0.25 0.28 0.30 0.33 0.28 0.16 0.07 0.04 0.03 0.06 0.07 0.05 0.04 0.05 0.07 0.14 0.13
0.45 0.52 0.34 0.24 0.38 0.51 0.43 0.37 0.40 0.59 0.60 0.55 0.52 0.34 0.26 0.20 0.14 0.12 0.09 0.06 0.06 0.05 0.01 0.04 0.13 0.22 0.26 0.32 0.33 0.32 0.33 0.25 0.15 0.10 0.06 0.06 0.07 0.04 0.02 0.03 0.10 0.13 0.12
0.19 0.25 0.23 0.18 0.26 0.25 0.17 0.27 0.41 0.50 0.40 0.42 0.46 0.24 0.16 0.15 0.13 0.10 0.07 0.05 0.05 0.04 0.02 0.02 0.08 0.16 0.21 0.27 0.28 0.22 0.20 0.22 0.19 0.17 0.12 0.09 0.12 0.07 0.02 0.04 0.11 0.09 0.09
0.08 0.10 0.10 0.10 0.14 0.11 0.06 0.16 0.27 0.24 0.14 0.30 0.34 0.18 0.10 0.07 0.07 0.06 0.05 0.04 0.02 0.02 0.02 0.03 0.06 0.10 0.11 0.14 0.17 0.18 0.15 0.15 0.16 0.16 0.13 0.13 0.14 0.09 0.03 0.04 0.05 0.04 0.07
0.02 0.02 0.03 0.04 0.04 0.05 0.03 0.06 0.17 0.20 0.17 0.25 0.27 0.21 0.08 0.05 0.03 0.02 0.02 0.02 0.01 0.01 0.01 0.03 0.07 0.10 0.11 0.11 0.12 0.17 0.19 0.17 0.17 0.20 0.22 0.20 0.16 0.11 0.07 0.07 0.06 0.04 0.05
0.00 0.00 0.00 0.01 0.01 0.02 0.02 0.03 0.09 0.13 0.14 0.13 0.18 0.22 0.09 0.03 0.03 0.02 0.02 0.02 0.01 0.01 0.03 0.08 0.12 0.14 0.16 0.17 0.17 0.15 0.14 0.14 0.20 0.26 0.28 0.21 0.10 0.06 0.09 0.14 0.14 0.08 0.04
0.00 0.00 0.00 0.00 0.00 0.01 0.01 0.02 0.03 0.07 0.09 0.07 0.05 0.06 0.08 0.08 0.06 0.03 0.02 0.01 0.01 0.02 0.05 0.09 0.17 0.23 0.21 0.17 0.16 0.15 0.14 0.14 0.18 0.23 0.25 0.22 0.15 0.11 0.15 0.26 0.29 0.21 0.11
0.00 0.00 0.00 0.00 0.01 0.01 0.02 0.04 0.05 0.06 0.07 0.07 0.07 0.08 0.10 0.11 0.08 0.05 0.02 0.01 0.03 0.03 0.06 0.11 0.20 0.24 0.21 0.22 0.29 0.28 0.25 0.23 0.19 0.16 0.17 0.20 0.24 0.27 0.30 0.36 0.44 0.43 0.32
0.00 0.00 0.00 0.01 0.01 0.01 0.03 0.04 0.04 0.06 0.08 0.10 0.12 0.13 0.13 0.11 0.07 0.06 0.04 0.03 0.06 0.09 0.17 0.23 0.27 0.30 0.27 0.33 0.40 0.33 0.24 0.19 0.14 0.12 0.11 0.13 0.14 0.14 0.16 0.22 0.34 0.49 0.58
0.00 0.00 0.01 0.01 0.00 0.01 0.02 0.03 0.04 0.05 0.07 0.09 0.10 0.11 0.13 0.15 0.16 0.17 0.16 0.14 0.13 0.14 0.20 0.27 0.33 0.32 0.26 0.30 0.33 0.30 0.21 0.11 0.06 0.04 0.03 0.04 0.07 0.14 0.21 0.24 0.28 0.35 0.45
0.00 0.00 0.00 0.00 0.00 0.01 0.03 0.05 0.06 0.08 0.08 0.08 0.07 0.09 0.12 0.15 0.23 0.24 0.26 0.30 0.23 0.20 0.25 0.30 0.34 0.35 0.33 0.31 0.29 0.24 0.16 0.09 0.03 0.02 0.01 0.01 0.02 0.04 0.09 0.20 0.31 0.41 0.49
0.00 0.00 0.00 0.00 0.00 0.01 0.02 0.03 0.05 0.07 0.08 0.07 0.09 0.14 0.15 0.19 0.25 0.24 0.26 0.31 0.31 0.26 0.31 0.32 0.24 0.20 0.22 0.20 0.19 0.14 0.08 0.04 0.02 0.01 0.01 0.00 0.00 0.00 0.01 0.01 0.04 0.07 0.12
0.00 0.00 0.00 0.00 0.00 0.01 0.01 0.02 0.04 0.06 0.08 0.10 0.14 0.19 0.20 0.22 0.25 0.23 0.27 0.30 0.27 0.28 0.31 0.28 0.19 0.16 0.13 0.09 0.06 0.04 0.02 0.01 0.01 0.01 0.01 0.01 0.01 0.01 0.00 0.00 0.00 0.00 0.01
0.00 0.00 0.00 0.00 0.01 0.01 0.03 0.07 0.10 0.12 0.16 0.18 0.20 0.24 0.27 0.28 0.28 0.26 0.30 0.29 0.22 0.23 0.21 0.15 0.15 0.14 0.11 0.07 0.03 0.02 0.01 0.01 0.01 0.01 0.01 0.01 0.01 0.01 0.00 0.00 0.00 0.00 0.00
0.01 0.01 0.01 0.01 0.01 0.01 0.03 0.08 0.16 0.15 0.15 0.18 0.27 0.38 0.41 0.43 0.34 0.27 0.29 0.25 0.19 0.20 0.17 0.13 0.12 0.11 0.10 0.06 0.03 0.01 0.00 0.00 0.00 0.00 0.01 0.01 0.01 0.01 0.00 0.00 0.00 0.00 0.00
0.03 0.02 0.01 0.01 0.01 0.01 0.02 0.07 0.15 0.16 0.19 0.28 0.39 0.41 0.39 0.43 0.35 0.28 0.24 0.19 0.15 0.14 0.12 0.10 0.11 0.11 0.09 0.04 0.02 0.01 0.00 0.00 0.00 0.00 0.00 0.00 0.01 0.02 0.01 0.00 0.00 0.00 0.00
0.04 0.03 0.02 0.02 0.02 0.01 0.02 0.07 0.13 0.18 0.27 0.40 0.39 0.26 0.27 0.34 0.32 0.25 0.19 0.13 0.10 0.09 0.08 0.08 0.09 0.09 0.06 0.04 0.02 0.01 0.00 0.00 0.00 0.00 0.00 0.00 0.00 0.00 0.00 0.00 0.00 0.00 0.00
0.03 0.04 0.03 0.02 0.01 0.00 0.02 0.08 0.14 0.12 0.14 0.19 0.18 0.12 0.13 0.19 0.26 0.23 0.17 0.12 0.09 0.08 0.07 0.05 0.04 0.05 0.04 0.03 0.02 0.01 0.00 0.00 0.00 0.00 0.00 0.00 0.00 0.00 0.00 0.00 0.00 0.00 0.00
0.03 0.05 0.05 0.03 0.01 0.00 0.01 0.04 0.06 0.06 0.06 0.05 0.04 0.04 0.03 0.03 0.07 0.11 0.12 0.11 0.09 0.07 0.05 0.03 0.02 0.02 0.02 0.02 0.01 0.00 0.00 0.00 0.00 0.00 0.00 0.00 0.00 0.00 0.00 0.00 0.00 0.00 0.00
0.04 0.07 0.08 0.06 0.03 0.01 0.00 0.00 0.00 0.02 0.01 0.01 0.01 0.01 0.01 0.01 0.01 0.02 0.03 0.03 0.03 0.02 0.01 0.01 0.01 0.01 0.01 0.00 0.00 0.00 0.00 0.00 0.00 0.00 0.00 0.00 0.00 0.00 0.00 0.00 0.00 0.00 0.00
0.05 0.08 0.11 0.10 0.08 0.03 0.00 0.00 0.00 0.00 0.00 0.00 0.00 0.00 0.00 0.00 0.00 0.00 0.00 0.00 0.00 0.00 0.00 0.00 0.00 0.00 0.00 0.00 0.00 0.00 0.00 0.00 0.00 0.00 0.00 0.00 0.00 0.01 0.01 0.01 0.00 0.00 0.00
0.10 0.10 0.12 0.14 0.11 0.07 0.01 0.00 0.00 0.00 0.00 0.00 0.00 0.00 0.00 0.00 0.00 0.00 0.00 0.00 0.00 0.00 0.00 0.00 0.00 0.00 0.00 0.00 0.00 0.00 0.00 0.00 0.00 0.00 0.00 0.00 0.00 0.01 0.02 0.02 0.00 0.00 0.00
0.14 0.15 0.14 0.15 0.15 0.11 0.03 0.00 0.00 0.00 0.00 0.00 0.00 0.00 0.00 0.00 0.00 0.00 0.00 0.00 0.00 0.00 0.00 0.00 0.00 0.00 0.00 0.00 0.00 0.00 0.00 0.00 0.00 0.00 0.00 0.00 0.00 0.00 0.01 0.01 0.00 0.00 0.00